Date String (YYYY-MM-DD hh:mm:ss) UTC,Instrument flags,Ambient pressure (hPa),Sample flow (lpm),Bypass flow (lpm),Sample temperature (°C),Ambient temperature (°C),ASC tube jacket temperature (°C),LED temperature (°C),Box temperature (°C),Sample RH (%),Span deviation,Mass concentration (μg/m³),Mass concentration (μg/m³),Mass concentration (μg/m³)
DateTimeUTC,F1_M11,P_M11,Q1_M11,Q2_M11,T1_M11,T2_M11,T3_M11,T4_M11,T5_M11,U1_M11,ZSPAN_M11,X0_M11,X2_M11,X1_M11
2022-06-21 14:00:00,,0835.2,5.01,0.00,29.7,28.8,00.0,38.6,31.6,15.9,0000.0,0008.94,0003.62,0001.52
2022-06-21 14:01:00,,0835.2,5.00,0.00,29.7,28.8,00.0,38.6,31.5,16.0,0000.0,0008.93,0003.63,0001.54
2022-06-21 14:02:00,,0835.2,4.99,0.00,29.7,28.8,00.0,38.6,31.5,15.9,0000.0,0009.05,0003.66,0001.56
2022-06-21 14:03:00,,0835.2,5.01,0.00,29.7,28.8,00.0,38.6,31.5,16.0,0000.0,0008.93,0003.61,0001.55
2022-06-21 14:04:00,,0835.2,5.00,0.00,29.8,28.8,00.0,38.6,31.6,16.0,0000.0,0009.07,0003.57,0001.54
2022-06-21 14:05:00,,0835.2,5.00,0.00,29.8,28.8,00.0,38.6,31.6,16.1,0000.0,0009.20,0003.50,0001.54
2022-06-21 14:06:00,,0835.2,4.99,0.00,29.8,28.8,00.0,38.6,31.5,16.1,0000.0,0009.13,0003.43,0001.53
2022-06-21 14:07:00,,0835.2,5.01,0.00,29.7,28.8,00.0,38.6,31.5,16.1,0000.0,0009.31,0003.39,0001.52
2022-06-21 14:08:00,,0835.2,5.00,0.00,29.7,28.8,00.0,38.6,31.5,16.0,0000.0,0009.33,0003.39,0001.51
2022-06-21 14:09:00,,0835.2,4.99,0.00,29.7,28.7,00.0,38.6,31.5,15.8,0000.0,0009.23,0003.38,0001.50
2022-06-21 14:10:00,,0835.2,5.01,0.00,29.7,28.7,00.0,38.6,31.4,15.7,0000.0,0009.45,0003.43,0001.50
2022-06-21 14:11:00,,0835.1,5.01,0.00,29.7,28.7,00.0,38.6,31.4,15.6,0000.0,0009.59,0003.45,0001.47
2022-06-21 14:12:00,,0835.2,5.00,0.00,29.7,28.7,00.0,38.6,31.4,15.5,0000.0,0009.66,0003.41,0001.45
2022-06-21 14:13:00,,0835.2,5.01,0.00,29.7,28.6,00.0,38.6,31.4,15.5,0000.0,0009.22,0003.33,0001.42
2022-06-21 14:14:00,,0835.2,4.99,0.00,29.7,28.6,00.0,38.6,31.4,15.3,0000.0,0009.15,0003.32,0001.41
2022-06-21 14:15:00,,0835.2,5.01,0.00,29.6,28.6,00.0,38.6,31.3,15.2,0000.0,0009.00,0003.33,0001.39
2022-06-21 14:16:00,,0835.3,4.99,0.00,29.6,28.6,00.0,38.6,31.3,15.1,0000.0,0008.52,0003.33,0001.37
2022-06-21 14:17:00,,0835.3,5.00,0.00,29.6,28.6,00.0,38.5,31.3,15.0,0000.0,0008.61,0003.35,0001.36
2022-06-21 14:18:00,,0835.3,5.02,0.00,29.6,28.5,00.0,38.5,31.3,15.0,0000.0,0008.54,0003.33,0001.34
2022-06-21 14:19:00,,0835.3,5.00,0.00,29.6,28.5,00.0,38.5,31.3,15.0,0000.0,0008.69,0003.27,0001.33
2022-06-21 14:20:00,,0835.3,4.99,0.00,29.6,28.5,00.0,38.5,31.3,15.0,0000.0,0008.74,0003.23,0001.33
2022-06-21 14:21:00,,0835.3,5.00,0.00,29.6,28.5,00.0,38.5,31.3,15.0,0000.0,0008.99,0003.21,0001.31
2022-06-21 14:22:00,,0835.3,5.00,0.00,29.5,28.5,00.0,38.5,31.3,14.9,0000.0,0008.82,0003.17,0001.32
2022-06-21 14:23:00,,0835.3,4.99,0.00,29.5,28.5,00.0,38.5,31.2,14.9,0000.0,0008.70,0003.16,0001.32
2022-06-21 14:24:00,,0835.3,5.01,0.00,29.5,28.4,00.0,38.5,31.2,14.9,0000.0,0008.51,0003.18,0001.33
2022-06-21 14:25:00,,0835.2,4.99,0.00,29.5,28.4,00.0,38.5,31.2,14.8,0000.0,0008.61,0003.20,0001.34
2022-06-21 14:26:00,,0835.3,4.99,0.00,29.5,28.4,00.0,38.5,31.2,14.9,0000.0,0008.72,0003.19,0001.34
2022-06-21 14:27:00,,0835.4,5.00,0.00,29.5,28.4,00.0,38.5,31.2,14.8,0000.0,0008.75,0003.18,0001.34
2022-06-21 14:28:00,,0835.3,5.01,0.00,29.5,28.4,00.0,38.4,31.2,14.8,0000.0,0009.21,0003.16,0001.32
2022-06-21 14:29:00,,0835.4,4.99,0.00,29.5,28.4,00.0,38.4,31.2,14.8,0000.0,0009.06,0003.15,0001.31
2022-06-21 14:30:00,,0835.4,5.00,0.00,29.5,28.4,00.0,38.4,31.2,14.9,0000.0,0008.68,0003.13,0001.30
2022-06-21 14:31:00,,0835.4,5.01,0.00,29.5,28.4,00.0,38.4,31.2,14.9,0000.0,0008.51,0003.13,0001.29
2022-06-21 14:32:00,,0835.3,5.00,0.00,29.5,28.4,00.0,38.4,31.2,14.9,0000.0,0008.23,0003.09,0001.28
2022-06-21 14:33:00,,0835.4,4.99,0.00,29.4,28.4,00.0,38.4,31.2,15.0,0000.0,0009.15,0003.08,0001.26
2022-06-21 14:34:00,,0835.4,5.01,0.00,29.4,28.4,00.0,38.4,31.1,15.0,0000.0,0009.17,0003.10,0001.26
2022-06-21 14:35:00,,0835.4,5.00,0.00,29.4,28.3,00.0,38.4,31.1,15.0,0000.0,0009.08,0003.03,0001.25
2022-06-21 14:36:00,,0835.4,5.00,0.00,29.4,28.3,00.0,38.4,31.1,15.0,0000.0,0009.03,0003.03,0001.25
2022-06-21 14:37:00,,0835.4,5.00,0.00,29.4,28.3,00.0,38.4,31.1,15.0,0000.0,0008.87,0002.98,0001.23
2022-06-21 14:38:00,,0835.3,5.00,0.00,29.4,28.3,00.0,38.4,31.1,15.0,0000.0,0008.99,0003.01,0001.25
2022-06-21 14:39:00,,0835.4,4.99,0.00,29.4,28.3,00.0,38.3,31.1,15.0,0000.0,0008.63,0003.12,0001.28
2022-06-21 14:40:00,,0835.4,5.00,0.00,29.4,28.3,00.0,38.3,31.1,15.0,0000.0,0008.98,0003.14,0001.29
2022-06-21 14:41:00,,0835.3,5.01,0.00,29.4,28.3,00.0,38.3,31.1,15.0,0000.0,0009.63,0003.18,0001.29
2022-06-21 14:42:00,,0835.4,4.99,0.00,29.4,28.3,00.0,38.3,31.1,15.0,0000.0,0009.74,0003.19,0001.30
2022-06-21 14:43:00,,0835.4,4.99,0.00,29.4,28.3,00.0,38.3,31.1,15.1,0000.0,0010.00,0003.20,0001.29
2022-06-21 14:44:00,,0835.4,5.01,0.00,29.4,28.3,00.0,38.3,31.1,15.2,0000.0,0008.98,0003.19,0001.31
2022-06-21 14:45:00,,0835.4,5.00,0.00,29.4,28.3,00.0,38.3,31.1,15.2,0000.0,0009.04,0003.19,0001.31
2022-06-21 14:46:00,,0835.4,4.99,0.00,29.4,28.3,00.0,38.3,31.1,15.2,0000.0,0009.26,0003.28,0001.30
2022-06-21 14:47:00,,0835.4,4.99,0.00,29.4,28.3,00.0,38.3,31.1,15.2,0000.0,0009.35,0003.26,0001.29
2022-06-21 14:48:00,,0835.4,5.00,0.00,29.4,28.3,00.0,38.3,31.1,15.2,0000.0,0009.54,0003.30,0001.29
2022-06-21 14:49:00,,0835.4,5.00,0.00,29.3,28.3,00.0,38.3,31.1,15.2,0000.0,0009.93,0003.35,0001.29
2022-06-21 14:50:00,,0835.4,5.01,0.00,29.3,28.3,00.0,38.3,31.1,15.2,0000.0,0010.21,0003.35,0001.29
2022-06-21 14:51:00,,0835.4,4.99,0.00,29.4,28.3,00.0,38.3,31.1,15.2,0000.0,0010.37,0003.40,0001.29
2022-06-21 14:52:00,,0835.4,4.99,0.00,29.4,28.3,00.0,38.3,31.1,15.1,0000.0,0009.59,0003.38,0001.31
2022-06-21 14:53:00,,0835.4,5.01,0.00,29.4,28.4,00.0,38.3,31.1,15.2,0000.0,0009.54,0003.36,0001.31
2022-06-21 14:54:00,,0835.4,4.99,0.00,29.4,28.4,00.0,38.3,31.1,15.2,0000.0,0009.27,0003.42,0001.33
2022-06-21 14:55:00,,0835.4,5.01,0.00,29.4,28.4,00.0,38.3,31.1,15.2,0000.0,0009.31,0003.40,0001.34
2022-06-21 14:56:00,,0835.4,5.00,0.00,29.4,28.4,00.0,38.3,31.1,15.2,0000.0,0009.21,0003.33,0001.34
2022-06-21 14:57:00,,0835.4,5.00,0.00,29.4,28.4,00.0,38.3,31.1,15.3,0000.0,0009.00,0003.24,0001.34
2022-06-21 14:58:00,,0835.4,5.00,0.00,29.4,28.4,00.0,38.3,31.1,15.3,0000.0,0008.87,0003.24,0001.36
2022-06-21 14:59:00,,0835.3,5.00,0.00,29.4,28.4,00.0,38.3,31.1,15.3,0000.0,0008.83,0003.24,0001.38
